Total_Precipitation_Accumulation
0.59 0.75 1.09 1.24 1.58 2.41 3.18 2.85 3.17 3.64 3.93 3.36 3.14 3.72 4.11 3.80 3.72 4.28 4.33 3.81 3.25 2.83
0.79 0.81 0.73 0.93 1.57 1.67 1.60 1.78 2.26 2.52 2.69 3.31 3.46 3.24 3.40 3.47 3.19 3.44 4.02 4.04 4.22 4.18
0.87 0.92 1.09 1.32 1.71 2.16 2.48 2.34 1.84 2.00 2.04 1.85 1.84 2.10 2.60 2.84 2.65 2.62 2.82 3.16 3.52 3.92
1.33 1.71 1.90 1.76 1.99 1.91 1.96 2.29 2.18 1.87 1.86 1.87 1.72 1.88 2.06 2.06 2.15 2.45 2.62 2.66 3.03 3.44
2.99 3.40 2.70 2.75 3.00 2.38 2.15 1.95 1.59 1.41 1.41 1.52 1.65 1.84 1.91 1.94 2.00 1.86 1.89 2.16 2.38 2.74
3.35 3.02 2.91 2.48 2.17 1.76 1.73 1.76 1.68 1.43 1.37 1.36 1.50 1.64 1.99 1.93 1.76 1.87 2.17 2.27 2.35 2.44
2.37 1.74 1.74 2.15 1.77 1.64 1.60 1.78 2.11 2.22 2.29 2.13 1.78 1.71 1.70 1.76 1.87 1.85 2.09 2.16 1.93 2.16
1.54 1.20 1.09 1.15 1.14 1.05 0.94 1.14 1.75 1.84 1.89 1.77 1.62 1.66 1.28 1.03 1.45 1.65 1.62 1.94 1.69 1.48
1.17 1.17 1.19 1.07 1.07 0.78 0.73 0.75 0.93 1.17 1.31 1.43 1.21 1.37 1.02 0.96 1.04 1.06 1.01 1.00 0.96 1.05
1.06 1.14 1.22 1.22 1.29 1.36 1.30 1.12 1.02 0.99 0.99 1.22 1.30 1.50 1.41 1.26 1.12 1.23 1.28 1.23 1.21 1.10
0.96 1.13 1.32 1.35 1.33 1.58 1.61 1.43 1.38 1.36 1.13 0.84 0.90 1.13 1.07 1.42 1.51 1.69 1.64 1.59 1.42 1.43
1.19 1.17 1.35 1.57 1.56 1.40 1.41 1.52 1.53 1.49 1.49 1.31 1.17 1.37 1.13 1.10 1.00 1.22 1.31 1.26 1.30 1.29
1.90 1.84 1.95 1.86 1.74 1.85 1.83 1.77 1.72 1.66 1.55 1.80 1.50 1.96 1.62 1.55 1.38 1.49 1.51 1.41 1.43 1.93
1.92 1.80 1.69 1.83 1.92 2.05 2.33 2.48 2.41 2.27 1.99 1.77 1.88 2.03 2.11 2.07 1.87 1.92 1.94 1.91 1.84 2.06